Regional Weather Roundup
Issued by NWS

Home | Current Version | Previous Version | Text Only | Print | Product List | Glossary Off
Versions: 1 2 3 4 5 6 7 8 9 10 11 12 13 14 15 16 17 18 19 20 21 22 23 24 25 26 27 28 29 30 31 32 33 34 35 36 37 38 39 40 41 42 43 44 45 46 47 48 49 50

474
ASUS43 KFSD 101602
RWRSD

WEATHER ROUNDUP FOR SOUTH DAKOTA
NATIONAL WEATHER SERVICE SIOUX FALLS SD
1000 AM CST WED FEB 10 2016

NOTE: "FAIR" INDICATES FEW OR NO CLOUDS BELOW 12,000 FEET WITH NO
SIGNIFICANT WEATHER AND/OR OBSTRUCTIONS TO VISIBILITY.


SDZ001>005-009-010-012>017-101700-
NORTHWEST AND NORTH CENTRAL SOUTH DAKOTA

CITY           SKY/WX    TMP DP  RH WIND       PRES   REMARKS
BUFFALO          N/A     48  24  39 NW26      29.83R
FAITH            N/A     43  26  51 W18       29.84R
MOBRIDGE       SUNNY     27  21  78 SE6       29.84R WCI  20
$$

SDZ012>016-024>037-041>051-057-063-072>074-101700-
SOUTHWEST AND SOUTH CENTRAL SOUTH DAKOTA

CITY           SKY/WX    TMP DP  RH WIND       PRES   REMARKS
RAPID CTY ARPT SUNNY     58  25  28 NW13      29.90R
PIERRE         SUNNY     30  27  88 CALM      29.85S
CUSTER         SUNNY     52  13  21 NW16G26   29.97R
ELLSWORTH AFB  SUNNY     58  21  23 NW21G29   29.89R
PHILIP         SUNNY     42  31  64 W9        29.87S
PINE RIDGE     SUNNY     45  25  45 W12       29.96F
WINNER         FAIR      37  29  72 W3        29.86S
$$

SDZ004>011-016>023-039-040-101700-
NORTHEAST SOUTH DAKOTA

CITY           SKY/WX    TMP DP  RH WIND       PRES   REMARKS
ABERDEEN       CLOUDY    18  12  77 E9        29.97R WCI   7
WATERTOWN      LGT SNOW  10   4  76 SE8       29.96S WCI  -2
BROOKINGS      LGT SNOW  13   8  81 E15       29.97R WCI  -3
SISSETON         N/A      8   4  83 S16       30.04S WCI -10
$$

SDZ017-020-022-023-036>040-048>070-101700-
SOUTHEAST SOUTH DAKOTA

CITY           SKY/WX    TMP DP  RH WIND       PRES   REMARKS
SIOUX FALLS    FLURRIES  17  13  84 E13       29.97S WCI   4
HURON          CLOUDY    22  17  81 SE15      29.93R WCI   9
CHAMBERLAIN    SUNNY     28  24  84 SE7       29.86F WCI  21
MITCHELL       MOSUNNY   25  20  81 SE16      29.93F WCI  12
YANKTON        CLOUDY    23  18  80 E10       29.93S WCI  12
$$

ABBREVIATIONS USED IN REMARKS
   TC - TEMPERATURE IN CELSIUS
  WCI - WIND CHILL INDEX
   HX - HEAT INDEX
  VSB - VISIBILITY





USA.gov is the U.S. government's official web portal to all federal, state and local government web resources and services.